Location: Bennemühlen
(52.5740°N, 9.7135°E)
Time: 06:41:58
(UTC+00:00)

Cosmos 1697 Rocket - Pass Details

Date: 19 May 2025
Orbit: 830 x 844 km, 71.0° (Epoch: 22 June)

Event Time Altitude Azimuth Distance (km) Brightness Sun altitude
Rises 21:16:54 0° 324° (NW) 3,407 7.8 -12.9°
Reaches altitude 10° 21:19:31 10° 316° (NW) 2,470 6.4 -13.0°
Maximum altitude 21:24:34 34° 253° (WSW) 1,351 3.9 -13.4°
Enters shadow 21:29:11 12° 192° (SSW) 2,319 4.5 -13.7°
